Location: Newark
(52.7309°N, 9.0270°W)
Time: 20:17:11
(UTC+00:00)

N. Korean satellite - Visible Passes

Search period start: 26 January 2020 00:00
Search period end: 05 February 2020 00:00
Orbit: 454 x 507 km, 97.2° (Epoch: 26 January)

Date Brightness Start Highest point End Pass type
(mag) Time Alt. Az. Time Alt. Az. Time Alt. Az.
26 Jan 10.0 05:19:15 10° ENE 05:20:50 12° E 05:22:25 10° ESE visible
26 Jan 6.4 06:51:05 10° N 06:54:38 68° WNW 06:58:13 10° SSW visible
27 Jan 7.0 06:25:35 10° NNE 06:29:08 62° E 06:32:43 10° S visible
27 Jan 9.9 18:41:59 10° WSW 18:43:45 13° W 18:45:32 10° WNW visible
28 Jan 8.4 06:00:16 10° NNE 06:03:32 32° E 06:06:50 10° SSE visible
28 Jan 7.6 07:33:51 10° N 07:36:50 25° WNW 07:39:50 10° WSW visible
28 Jan 9.2 18:15:10 10° SSW 18:18:00 24° W 18:20:54 10° NW visible
29 Jan 9.5 05:35:16 10° NE 05:37:52 18° E 05:40:28 10° SE visible
29 Jan 6.9 07:08:01 10° N 07:11:27 44° WNW 07:14:56 10° SW visible
29 Jan 7.8 17:49:03 10° S 17:52:22 45° W 17:55:44 10° NNW visible
30 Jan 10.2 05:11:27 10° ENE 05:12:06 10° E 05:12:43 10° E visible
30 Jan 6.5 06:42:24 10° NNE 06:46:01 85° W 06:49:39 10° SSW visible
31 Jan 7.5 06:16:56 10° NNE 06:20:28 50° E 06:24:02 10° S visible
31 Jan 9.7 18:32:44 10° SW 18:34:59 16° W 18:37:17 10° NW visible
01 Feb 8.8 05:51:42 10° NE 05:54:51 27° E 05:58:00 10° SSE visible
01 Feb 7.4 07:25:02 10° N 07:28:14 30° WNW 07:31:29 10° SW visible
01 Feb 8.8 18:06:14 10° SSW 18:09:17 29° W 18:12:24 10° NNW visible
02 Feb 9.7 05:26:53 10° NE 05:29:08 16° E 05:31:24 10° SE visible
02 Feb 6.6 06:59:17 10° N 07:02:50 55° WNW 07:06:26 10° SSW visible
03 Feb 6.7 06:33:42 10° NNE 06:37:21 78° ESE 06:41:02 10° S visible
03 Feb 10.2 18:50:55 10° WSW 18:52:00 11° W 18:53:06 10° WNW visible
04 Feb 8.0 06:08:18 10° NNE 06:11:47 41° E 06:15:17 10° S visible
04 Feb 9.6 18:23:36 10° SW 18:26:14 20° W 18:28:54 10° NW visible
